Weather History for Bellingham, WA

Change the Weather History Date:

Wednesday, May 22, 2013

  Actual Average Record
Temperature  
Mean Temperature 52 °F 55 °F  
Max Temperature 56 °F 63 °F 80 °F (1958)
Min Temperature 47 °F 47 °F 39 °F (1984)
Degree Days  
Heating Degree Days 13 10  
Month to date heating degree days 190 262  
Cooling Degree Days 0 0  
Month to date cooling degree days 0 0  
Year to date cooling degree days 0 0  
Moisture  
Dew Point 45 °F    
Average Humidity 80    
Maximum Humidity 93    
Minimum Humidity 66    
Precipitation  
Precipitation 0.18 in 0.08 in 0.61 in (1996)
Month to date precipitation 1.64 1.75  
Year to date precipitation 12.31 15.35  
Sea Level Pressure  
Sea Level Pressure 29.89 in    
Wind  
Wind Speed 6 mph (SSE)    
Max Wind Speed 16 mph    
Max Gust Speed 22 mph    
Visibility 10 miles    
Events Rain    
T = Trace of Precipitation, MM = Missing Value Source: NWS Daily Summary

Daily Weather History Graph

Daily Weather History Graph

Search for Another Location

Airport:

Trip Planner

Search our weather history database for the weather conditions in past years. The results will help you decide how hot, cold, wet, or windy it might be!

Date:

Astronomy

May. 22, 2013 Rise Set
Actual Time 5:19 AM PDT 8:54 PM PDT
Civil Twilight 4:40 AM PDT 9:34 PM PDT
Nautical Twilight 3:47 AM PDT 10:27 PM PDT
Astronomical Twilight 2:35 AM PDT 11:41 PM PDT
Moon 6:12 PM PDT (5/22) 3:41 AM PDT (5/22)
Length of Visible Light 16h 53m
Length of Day
15h 34m
Waxing Gibbous, 92% of the Moon is Illuminated
May 22
Waxing Gibbous
May 24
Full
May 31
Last Quarter
Jun 8
New
Jun 16
First Quarter

Hourly Weather History & Observations

Time (PDT) Temp. Windchill Dew Point Humidity Pressure Visibility Wind Dir Wind Speed Gust Speed Precip Events Conditions
12:53 AM 50.0 °F - 43.0 °F 77% 29.87 in 10.0 mi SSE 6.9 mph - N/A   Overcast
1:53 AM 50.0 °F - 44.1 °F 80% 29.88 in 10.0 mi SE 3.5 mph - N/A   Overcast
2:53 AM 48.9 °F - 44.1 °F 83% 29.88 in 10.0 mi SSE 4.6 mph - N/A   Overcast
3:28 AM 48.2 °F - 44.6 °F 87% 29.86 in 10.0 mi SE 6.9 mph - N/A   Scattered Clouds
3:39 AM 46.4 °F 44.3 °F 42.8 °F 87% 29.86 in 10.0 mi ESE 4.6 mph - N/A   Mostly Cloudy
3:53 AM 48.0 °F - 44.1 °F 86% 29.89 in 10.0 mi SE 5.8 mph - N/A   Mostly Cloudy
4:02 AM 48.2 °F - 44.6 °F 87% 29.86 in 10.0 mi SE 4.6 mph - N/A   Mostly Cloudy
4:53 AM 48.0 °F - 44.1 °F 86% 29.89 in 10.0 mi SSE 4.6 mph - N/A   Overcast
5:12 AM 48.2 °F - 44.6 °F 87% 29.86 in 10.0 mi SE 3.5 mph - N/A   Overcast
5:23 AM 48.2 °F - 44.6 °F 87% 29.86 in 10.0 mi Calm Calm - N/A   Overcast
5:53 AM 46.9 °F - 45.0 °F 93% 29.88 in 10.0 mi Calm Calm - N/A   Overcast
6:40 AM 46.4 °F 45.2 °F 44.6 °F 93% 29.85 in 10.0 mi NE 3.5 mph - N/A   Overcast
6:53 AM 48.0 °F - 45.0 °F 89% 29.88 in 10.0 mi Calm Calm - N/A   Overcast
7:53 AM 50.0 °F - 44.1 °F 80% 29.87 in 10.0 mi Calm Calm - N/A   Scattered Clouds
8:01 AM 51.8 °F - 44.6 °F 76% 29.85 in 10.0 mi SSE 4.6 mph - N/A   Mostly Cloudy
8:53 AM 51.1 °F - 44.1 °F 77% 29.88 in 10.0 mi South 3.5 mph - N/A   Mostly Cloudy
9:53 AM 54.0 °F - 46.0 °F 75% 29.87 in 10.0 mi SSE 6.9 mph - N/A   Mostly Cloudy
10:22 AM 51.8 °F - 44.6 °F 76% 29.85 in 10.0 mi South 5.8 mph - N/A   Overcast
10:53 AM 53.1 °F - 45.0 °F 74% 29.87 in 10.0 mi SSE 5.8 mph - N/A   Overcast
11:53 AM 55.0 °F - 45.0 °F 69% 29.88 in 10.0 mi South 6.9 mph - N/A   Mostly Cloudy
12:53 PM 53.1 °F - 45.0 °F 74% 29.89 in 10.0 mi South 4.6 mph - N/A   Overcast
1:53 PM 54.0 °F - 44.1 °F 69% 29.89 in 10.0 mi Variable 4.6 mph - N/A   Mostly Cloudy
2:53 PM 55.0 °F - 45.0 °F 69% 29.90 in 10.0 mi SSE 9.2 mph - N/A   Overcast
3:53 PM 55.0 °F - 45.0 °F 69% 29.89 in 10.0 mi South 6.9 mph - N/A   Mostly Cloudy
4:53 PM 55.0 °F - 46.0 °F 72% 29.89 in 10.0 mi South 6.9 mph - N/A   Overcast
5:53 PM 55.0 °F - 46.0 °F 72% 29.89 in 10.0 mi South 6.9 mph - N/A   Overcast
6:53 PM 54.0 °F - 46.9 °F 77% 29.92 in 10.0 mi South 12.7 mph 17.3 mph N/A   Overcast
7:53 PM 51.1 °F - 46.0 °F 83% 29.92 in 10.0 mi SSE 12.7 mph 18.4 mph 0.00 in Rain Light Rain
8:53 PM 50.0 °F - 46.0 °F 86% 29.94 in 10.0 mi SSE 10.4 mph 18.4 mph 0.02 in   Overcast
9:53 PM 48.0 °F - 46.0 °F 93% 29.97 in 8.0 mi SSE 9.2 mph - 0.09 in Rain Light Rain
10:08 PM 48.2 °F - 46.4 °F 93% 29.95 in 8.0 mi SSE 5.8 mph - 0.02 in Rain Light Rain
10:53 PM 48.0 °F - 46.0 °F 93% 29.97 in 10.0 mi Calm Calm - 0.06 in Rain Light Rain
11:53 PM 46.9 °F - 46.0 °F 97% 29.96 in 10.0 mi Calm Calm - 0.01 in   Overcast